[[{"header":{"parameterUnit":"m.s-1","parameterCategory":1,"la1":30.2991,"la2":30.254,"lo1":-89.0895,"lo2":-89.0444,"dy":0.0017,"dx":0.0017,"nx":28,"ny":28,"refTime":"2024-05-19T21:00:00:Z","depth":0,"parameterNumber":2,"parameterNumberName":"U-component_of_WINDS"},"data":[0,0,0,0,0,0,0,0,0,0,0,0,0,0,0,0,0,0,0,0,0,0,0,0,0,0,0,0,0,0,0,0,0,0,0,0,0,0,0,0,0,0,0,0,0,0,0,0,0,0,0,0,0,0,0,0,0,0,-2.7609,-2.7609,0,-2.7572,-2.7572,-2.7571,-2.751,-2.7509,-2.7508,-2.7507,-2.7469,-2.7469,-2.7469,0,0,0,0,0,0,0,0,0,0,0,0,0,-2.7629,-2.7629,-2.7609,-2.7609,-2.7608,-2.7572,-2.7572,-2.7571,-2.751,-2.7509,-2.7508,-2.7506,-2.7469,-2.7469,-2.7469,0,0,0,0,0,0,0,0,0,0,0,0,0,-2.7609,-2.7629,-2.7609,-2.7574,-2.757,-2.7572,-2.7572,-2.7571,-2.7511,-2.7509,-2.7507,-2.7506,-2.7469,-2.7469,-2.7469,-2.7503,0,0,-2.7469,-2.7469,0,0,0,0,0,0,0,0,-2.761,-2.7608,-2.7579,-2.7576,-2.7572,-2.7544,-2.7565,-2.7548,-2.7511,-2.7533,-2.7507,-2.7505,-2.7495,-2.7493,-2.749,-2.7501,-2.75,-2.7469,-2.7469,-2.7469,-2.7469,0,0,0,0,0,0,0,-2.7612,-2.761,-2.7594,-2.7579,-2.7575,-2.756,-2.7555,-2.7561,-2.7524,-2.7531,-2.7527,-2.7523,-2.7493,-2.749,-2.7488,-2.7499,-2.7469,-2.7469,-2.7469,-2.7469,-2.7538,-2.754,0,0,0,0,0,0,-2.7618,-2.7611,-2.7596,-2.7593,-2.7587,-2.7561,-2.7556,-2.7555,-2.7524,-2.7518,-2.7524,-2.752,-2.7491,-2.7488,-2.7487,-2.7525,-2.7469,-2.7469,-2.7469,-2.7536,-2.7538,-2.754,0,0,0,0,0,0,-2.7619,-2.7618,-2.7597,-2.7601,-2.7597,-2.7562,-2.7562,-2.7555,-2.7552,-2.7519,-2.7512,-2.7528,-2.7489,-2.7487,-2.75,-2.7523,-2.7469,-2.7469,-2.7534,-2.7537,-2.7539,-2.7601,0,0,0,0,0,0,-2.762,-2.7618,-2.763,-2.7602,-2.7597,-2.761,-2.7563,-2.7555,-2.7552,-2.7546,-2.752,-2.7514,-2.7488,-2.75,-2.75,-2.7522,-2.7469,-2.7532,-2.7535,-2.7538,-2.7597,-2.7606,-2.7613,0,0,0,0,0,-2.7621,-2.7649,-2.7631,-2.7629,-2.7612,-2.7612,-2.7609,-2.7578,-2.7554,-2.7566,-2.7545,-2.7515,-2.7521,-2.7502,-2.7501,-2.7523,-2.753,-2.7534,-2.7538,-2.7593,-2.7604,-2.7613,0,0,0,0,0,0,-2.768,-2.7644,-2.7624,-2.7644,-2.7631,-2.7601,-2.7615,-2.759,-2.7584,-2.7578,-2.754,-2.7535,-2.7553,-2.7539,-2.7519,-2.7555,-2.7521,-2.7525,-2.7563,-2.7573,-2.7581,-2.7583,-2.7469,0,0,0,0,0,-2.7696,-2.7698,-2.7667,-2.7688,-2.7682,-2.7651,-2.7649,-2.7626,-2.7612,-2.7606,-2.7586,-2.7573,-2.7572,-2.7572,-2.7569,-2.7595,-2.7589,-2.7611,-2.7619,-2.7626,-2.7629,-2.7643,-2.7652,-2.7553,-2.7553,-2.7553,0,0,-2.7727,-2.7708,-2.7712,-2.7699,-2.7687,-2.7691,-2.7646,-2.7652,-2.7655,-2.7607,-2.7617,-2.7603,-2.7586,-2.7606,-2.7614,-2.7596,-2.7656,-2.7631,-2.7637,-2.7636,-2.7648,-2.7657,-2.7666,-2.7556,-2.7556,-2.7555,0,0,-2.7787,-2.7773,-2.7788,-2.7777,-2.776,-2.7738,-2.7743,-2.7717,-2.7705,-2.7716,-2.768,-2.7684,-2.7682,-2.7672,-2.7667,-2.7726,-2.7698,-2.7726,-2.7768,-2.7782,-2.7789,-2.7796,-2.7817,-2.7825,-2.773,-2.773,-2.773,0,-2.7828,-2.7833,-2.78,-2.7808,-2.7804,-2.7762,-2.7778,-2.7769,-2.7751,-2.7749,-2.7729,-2.7728,-2.7713,-2.7731,-2.7745,-2.7743,-2.7746,-2.7728,-2.7791,-2.7797,-2.7803,-2.7822,-2.783,-2.7734,-2.7733,-2.7733,-2.7732,0,-2.7885,-2.7889,-2.7904,-2.7888,-2.7885,-2.7898,-2.7867,-2.7869,-2.7847,-2.7829,-2.7841,-2.7823,-2.7816,-2.7819,-2.7797,-2.7834,-2.7823,-2.7798,-2.7762,-2.7816,-2.7834,-2.7841,-2.7739,-2.7737,-2.7736,-2.7735,0,0,-2.7978,-2.7946,-2.7952,-2.7944,-2.7923,-2.7925,-2.7937,-2.793,-2.7933,-2.7923,-2.7931,-2.7932,-2.7909,-2.7904,-2.7881,-2.7893,-2.7941,-2.7866,-2.7866,-2.7881,-2.7981,-2.7999,-2.8008,-2.7924,-2.7925,-2.7926,-2.7982,0,-2.8032,-2.8049,-2.8021,-2.8044,-2.8048,-2.8009,-2.8019,-2.8007,-2.7991,-2.7992,-2.7974,-2.7975,-2.7945,-2.7941,-2.7952,-2.7933,-2.7961,-2.7929,-2.7931,-2.7932,-2.7935,-2.8017,-2.8036,-2.809,-2.7989,-2.799,-2.7991,0,-2.8097,-2.8091,-2.8115,-2.8093,-2.8093,-2.8103,-2.8095,-2.8097,-2.8084,-2.8071,-2.8066,-2.804,-2.805,-2.8017,-2.8031,-2.801,-2.801,-2.8001,-2.8003,-2.8,-2.7963,-2.8017,-2.8106,-2.8114,-2.8001,-2.8,-2.8,0,-2.8162,-2.816,-2.8174,-2.8169,-2.8144,-2.8152,-2.8142,-2.8127,-2.8126,-2.812,-2.8119,-2.8114,-2.8112,-2.8109,-2.8083,-2.8061,-2.81,-2.8065,-2.809,-2.8091,-2.8098,-2.8098,-2.8188,-2.8101,-2.8101,-2.81,-2.81,0,-2.8225,-2.8241,-2.8203,-2.8211,-2.8229,-2.8197,-2.8216,-2.8202,-2.819,-2.8195,-2.8162,-2.8169,-2.8134,-2.8137,-2.8117,-2.8132,-2.8131,-2.8121,-2.8116,-2.8123,-2.8125,-2.8122,-2.8117,-2.8102,-2.8102,-2.8102,-2.8101,0,-2.8299,-2.8275,-2.8287,-2.8264,-2.8258,-2.8272,-2.8252,-2.8259,-2.8242,-2.825,-2.825,-2.8223,-2.8225,-2.8199,-2.8196,-2.8182,-2.8206,-2.8194,-2.821,-2.8206,-2.8233,-2.823,-2.8323,-2.8333,-2.824,-2.8241,-2.8242,0,-2.834,-2.8351,-2.8329,-2.8331,-2.8323,-2.8326,-2.8325,-2.8295,-2.8295,-2.8282,-2.8292,-2.8291,-2.8289,-2.8294,-2.8274,-2.8272,-2.8259,-2.8292,-2.8258,-2.8266,-2.8259,-2.8258,-2.8259,-2.8298,-2.8299,-2.83,-2.8301,0,-2.8415,-2.8403,-2.8402,-2.8398,-2.8397,-2.8392,-2.8385,-2.8389,-2.8357,-2.8359,-2.8361,-2.8359,-2.8357,-2.8357,-2.8351,-2.8341,-2.8316,-2.8312,-2.8318,-2.8325,-2.8334,-2.8329,-2.8228,-2.831,-2.8309,-2.8308,-2.8308,-2.8307,-2.8473,-2.8482,-2.8468,-2.8469,-2.8461,-2.8456,-2.8462,-2.8446,-2.8447,-2.8442,-2.8426,-2.8431,-2.8419,-2.8409,-2.8402,-2.8406,-2.839,-2.8398,-2.84,-2.8402,-2.8407,-2.8335,-2.8405,-2.8405,-2.8404,-2.8404,-2.8404,0,-2.8546,-2.8536,-2.8537,-2.8529,-2.853,-2.8507,-2.8499,-2.8501,-2.8506,-2.8497,-2.8496,-2.8499,-2.8499,-2.8481,-2.8479,-2.8486,-2.8474,-2.8486,-2.8485,-2.8483,-2.8421,-2.8416,-2.8496,-2.8496,-2.8496,-2.8496,-2.8496,-2.8496,-2.8583,-2.8597,-2.8584,-2.8594,-2.8584,-2.8589,-2.8586,-2.8582,-2.8575,-2.8579,-2.858,-2.8568,-2.8555,-2.8553,-2.8553,-2.8547,-2.8548,-2.8564,-2.8554,-2.8496,-2.8487,-2.8479,-2.8474,-2.8564,-2.8564,-2.8615,-2.8616,-2.8616]},{"header":{"parameterUnit":"m.s-1","parameterCategory":1,"la1":30.2991,"la2":30.254,"lo1":-89.0895,"lo2":-89.0444,"dy":0.0017,"dx":0.0017,"nx":28,"ny":28,"refTime":"2024-05-19T21:00:00:Z","depth":0,"parameterNumber":3,"parameterNumberName":"V-component_of_WINDS"},"data":[0,0,0,0,0,0,0,0,0,0,0,0,0,0,0,0,0,0,0,0,0,0,0,0,0,0,0,0,0,0,0,0,0,0,0,0,0,0,0,0,0,0,0,0,0,0,0,0,0,0,0,0,0,0,0,0,0,0,2.2574,2.2574,0,2.2609,2.2609,2.261,2.2695,2.2696,2.2698,2.27,2.2732,2.2731,2.273,0,0,0,0,0,0,0,0,0,0,0,0,0,2.2578,2.2578,2.2574,2.2574,2.2575,2.2609,2.2609,2.261,2.2694,2.2696,2.2699,2.2701,2.2732,2.2731,2.273,0,0,0,0,0,0,0,0,0,0,0,0,0,2.2591,2.2577,2.2574,2.2621,2.2626,2.2609,2.2609,2.261,2.2694,2.2696,2.2699,2.2702,2.2733,2.2731,2.273,2.2669,0,0,2.2727,2.2726,0,0,0,0,0,0,0,0,2.259,2.2591,2.2614,2.2618,2.2623,2.265,2.2623,2.263,2.2693,2.2668,2.27,2.2703,2.2702,2.2704,2.2704,2.2671,2.2672,2.2726,2.2726,2.2725,2.2725,0,0,0,0,0,0,0,2.2589,2.259,2.2588,2.2614,2.262,2.264,2.2645,2.2624,2.2669,2.267,2.2677,2.268,2.2705,2.2705,2.2706,2.2672,2.2726,2.2725,2.2725,2.2724,2.2591,2.2589,0,0,0,0,0,0,2.2582,2.2588,2.2587,2.2589,2.2613,2.2638,2.2643,2.2639,2.267,2.2677,2.2677,2.2684,2.2706,2.2707,2.2707,2.2639,2.2725,2.2724,2.2723,2.2594,2.2591,2.2588,0,0,0,0,0,0,2.2581,2.2581,2.2585,2.259,2.2592,2.2635,2.2629,2.2638,2.2638,2.2675,2.2684,2.2669,2.2708,2.2709,2.2678,2.2641,2.2724,2.2722,2.2597,2.2593,2.2589,2.25,0,0,0,0,0,0,2.2581,2.258,2.2558,2.2589,2.2592,2.2556,2.2627,2.2637,2.2636,2.2645,2.267,2.2677,2.271,2.268,2.2677,2.2641,2.2721,2.2601,2.2595,2.259,2.2506,2.2493,2.2482,0,0,0,0,0,2.2581,2.253,2.2556,2.2556,2.2565,2.2554,2.2555,2.2596,2.2633,2.261,2.2635,2.2676,2.2645,2.2676,2.2674,2.2636,2.2603,2.2597,2.2591,2.2512,2.2495,2.2482,0,0,0,0,0,0,2.2492,2.2535,2.2564,2.2522,2.2534,2.2568,2.2541,2.2578,2.2578,2.2586,2.2636,2.2641,2.2603,2.2617,2.265,2.2579,2.2631,2.2624,2.2572,2.2557,2.2545,2.2542,2.272,0,0,0,0,0,2.2467,2.2456,2.2494,2.2453,2.2458,2.2498,2.2495,2.2526,2.2539,2.2544,2.2566,2.2577,2.257,2.2564,2.256,2.2509,2.2516,2.2482,2.2469,2.2459,2.2452,2.2427,2.2413,2.2567,2.2567,2.2567,0,0,2.2416,2.2439,2.2428,2.2436,2.2448,2.2435,2.2502,2.2484,2.2474,2.2541,2.2514,2.253,2.2546,2.2505,2.2488,2.2515,2.2412,2.2451,2.2443,2.2442,2.2419,2.2405,2.2392,2.2563,2.2563,2.2564,0,0,2.2317,2.2332,2.2301,2.2312,2.2331,2.2359,2.2351,2.238,2.2394,2.2368,2.2418,2.2407,2.2394,2.2403,2.2406,2.2311,2.2349,2.2308,2.2243,2.2218,2.2206,2.2196,2.2162,2.2149,2.2301,2.2301,2.2301,0,2.225,2.2233,2.2279,2.2259,2.2261,2.2323,2.2291,2.2299,2.2315,2.2314,2.2345,2.233,2.2345,2.2308,2.2285,2.2285,2.2277,2.2305,2.2204,2.2194,2.2185,2.2154,2.2141,2.2296,2.2296,2.2297,2.2297,0,2.2151,2.2138,2.211,2.2125,2.2124,2.2098,2.214,2.2133,2.2164,2.2188,2.2161,2.2181,2.2182,2.2175,2.2204,2.2142,2.2158,2.2196,2.2249,2.2165,2.2136,2.2124,2.2288,2.229,2.2292,2.2293,0,0,2.1995,2.2038,2.2027,2.2035,2.2061,2.2051,2.2028,2.203,2.2024,2.2032,2.2014,2.2002,2.2037,2.204,2.2071,2.2049,2.1973,2.209,2.2091,2.2067,2.1906,2.1878,2.1863,2.1999,2.1997,2.1995,2.1905,0,2.1902,2.1866,2.1907,2.1861,2.185,2.1909,2.1889,2.1902,2.1924,2.1917,2.1941,2.1932,2.1979,2.1982,2.1962,2.1986,2.1942,2.1994,2.1982,2.1981,2.1976,2.1848,2.1818,2.1732,2.1894,2.1892,2.1891,0,2.1788,2.1793,2.1747,2.1777,2.1774,2.1755,2.1761,2.1754,2.177,2.1788,2.1792,2.183,2.1809,2.1861,2.1832,2.1866,2.1864,2.1875,2.1873,2.1873,2.1931,2.1845,2.1706,2.1693,2.1874,2.1875,2.1876,0,2.1679,2.1675,2.1647,2.1652,2.1686,2.1672,2.1685,2.1704,2.1703,2.1708,2.1708,2.171,2.1711,2.1711,2.1749,2.1783,2.1715,2.177,2.1729,2.1728,2.1712,2.1712,2.157,2.171,2.171,2.171,2.171,0,2.1571,2.154,2.1599,2.1582,2.1549,2.1597,2.1563,2.1583,2.1599,2.1587,2.1637,2.1624,2.1674,2.1666,2.1695,2.1667,2.1666,2.168,2.1688,2.1675,2.1674,2.1675,2.1681,2.1707,2.1708,2.1708,2.1709,0,2.1444,2.1482,2.1456,2.1491,2.1499,2.1474,2.1503,2.1488,2.1514,2.1498,2.1496,2.1536,2.153,2.1567,2.1566,2.1586,2.1544,2.1562,2.1538,2.1544,2.1501,2.1504,2.1354,2.1337,2.1487,2.1486,2.1484,0,2.1372,2.1351,2.1384,2.138,2.1391,2.1383,2.1383,2.1429,2.1427,2.1445,2.1427,2.1425,2.1426,2.1412,2.144,2.144,2.1459,2.1406,2.1459,2.1448,2.1459,2.146,2.1458,2.1395,2.1393,2.1392,2.1391,0,2.1241,2.1262,2.1261,2.1266,2.1265,2.1271,2.128,2.1273,2.1323,2.1318,2.1313,2.1313,2.1313,2.131,2.1316,2.1329,2.1368,2.1374,2.1364,2.1351,2.1339,2.1345,2.1509,2.1377,2.1378,2.1379,2.138,2.1381,2.1141,2.1124,2.1146,2.1143,2.1155,2.1163,2.1151,2.1176,2.1173,2.1177,2.1205,2.1194,2.1211,2.1224,2.1233,2.1225,2.125,2.1236,2.1233,2.1229,2.1221,2.134,2.1226,2.1227,2.1227,2.1227,2.1228,0,2.1013,2.103,2.1026,2.1039,2.1036,2.1074,2.1087,2.1082,2.1072,2.1086,2.1086,2.108,2.1077,2.1106,2.1107,2.1095,2.1113,2.1094,2.1095,2.1098,2.1198,2.1207,2.108,2.108,2.108,2.108,2.108,2.108,2.0946,2.0921,2.0943,2.0925,2.0942,2.0933,2.0937,2.0944,2.0956,2.0947,2.0946,2.0965,2.0985,2.0988,2.0987,2.0996,2.0994,2.0969,2.0983,2.1076,2.1091,2.1104,2.1113,2.0968,2.0968,2.0884,2.0883,2.0882]}]]